{"data":{"norad_id":41851,"epoch":"2026-05-25T03:28:46.790400Z","epoch_age_seconds":52676,"freshness":"FRESH","line1":"1 41851U 16067D   26145.14498600  .00001925  00000+0  12415-3 0  9991","line2":"2 41851  98.0723 356.2257 0015294 190.3700 169.7214 15.09544741521694","mean_motion":15.09544741,"eccentricity":0.0015294,"inclination_deg":98.0723,"raan_deg":356.2257,"arg_perigee_deg":190.37,"mean_anomaly_deg":169.7214,"bstar":0.00012415,"rev_number":52169,"period_min":95.392999020756,"perigee_km":527.01320270669,"apogee_km":548.16702880837,"semimajor_km":6915.7271157575,"source":"CELESTRAK","updated_at":"2026-05-25T13:38:25.528719Z"}}